Location: ???????
(55.4362°N, 38.1183°E)
Time: 15:04:24
(UTC+00:00)

Oscar 11 - Pass Details

Date: 12 December 2021
Orbit: 611 x 625 km, 97.6° (Epoch: 25 January)

Event Time Altitude Azimuth Distance (km) Brightness Sun altitude
Rises 03:54:37 0° 10° (N) 2,920 10.4 -14.3°
Reaches altitude 10° 03:56:55 10° 3° (N) 2,006 9.5 -14.0°
Maximum altitude 04:00:58 39° 295° (WNW) 936 7.5 -13.5°
Drops below altitude 10° 04:04:59 10° 226° (SW) 1,984 9.4 -12.9°
Sets 04:07:15 0° 219° (SW) 2,883 10.3 -12.6°
